This demonstration page uses our WeatherBlox Daily Observations layout. Learn more.

Left ArrowRight Arrow

Hourly Observations for May 5, 2015

Temp ( °F °C ) Dew Point ( °F °C ) Humidity (%) Winds ( mph kmh ) Pressure ( in mb ) Visibility ( mi km ) Precip ( " mm )
12:53 am 00:53 Mostly Cloudy with Fog 55 12.8 55 12.8 100 100 ENE 6 9 30.07 1018 0 0 0.00 0.00
1:53 am 01:53 Mostly Cloudy with Fog 56 13.3 55 12.8 97 97 E 8 13 30.04 1017 0 0 0.00 0.00
2:53 am 02:53 Mostly Cloudy with Light Rain 56 13.3 56 13.3 100 100 E 3 6 30.04 1017 0 0 0.01 0.25
3:53 am 03:53 Mostly Cloudy with Light Rain 56 13.3 56 13.3 100 100 Calm 30.03 1017 0 0 0.01 0.25
4:53 am 04:53 Mostly Cloudy with Fog 57 13.9 56 13.3 96 96 Calm 30.02 1017 0 0 0.00 0.03
5:53 am 05:53 Mostly Cloudy with Fog 57 13.9 57 13.9 100 100 Calm 30.01 1016 0 0 0.00 0.00
6:25 am 06:25 Cloudy with Mist and Fog 58 14.4 57 13.9 97 97 VRB 3 6 30.03 1017 2 3 0.00 0.00
6:33 am 06:33 Cloudy with Mist and Fog 58 14.4 57 13.9 97 97 Calm 30.03 1017 3 5 0.00 0.00
6:46 am 06:46 Cloudy with Mist and Fog 58 14.4 57 13.9 97 97 S 3 6 30.03 1017 2 3 0.00 0.00
6:53 am 06:53 Cloudy with Mist and Fog 58 14.4 57 13.9 97 97 S 5 7 30.02 1017 2 2 0.00 0.00
7:12 am 07:12 Cloudy with Fog 58 14.4 57 13.9 97 97 Calm 30.03 1017 1 1 0.00 0.00
7:32 am 07:32 Cloudy with Mist and Fog 57 14 57 14 100 100 ESE 3 6 30.03 1017 2 2 0.00 0.00
7:41 am 07:41 Cloudy with Mist and Fog 58 14.4 58 14.4 100 100 E 3 6 30.03 1017 3 4 0.00 0.00
7:53 am 07:53 Cloudy with Mist and Fog 58 14.4 58 14.4 100 100 E 5 7 30.04 1017 3 4 0.00 0.00
8:12 am 08:12 Cloudy with Mist and Fog 59 15 58 14.4 96 96 E 3 6 30.03 1017 3 5 0.00 0.00
8:30 am 08:30 Cloudy with Mist and Fog 61 16 57 14 88 88 E 3 6 30.03 1017 4 6 0.00 0.00
8:37 am 08:37 Cloudy with Mist and Fog 60 15.6 58 14.4 93 93 E 5 7 30.03 1017 5 8 0.00 0.00
8:53 am 08:53 Cloudy with Mist and Fog 61 16.1 59 15 93 93 ENE 5 7 30.03 1017 4 6 0.00 0.00
9:20 am 09:20 Mostly Cloudy with Mist and Fog 61 16 59 15 94 94 SE 5 7 30.03 1017 3 5 0.00 0.00
9:32 am 09:32 Cloudy with Mist and Fog 63 17 59 15 88 88 SE 7 11 30.03 1017 5 8 0.00 0.00
9:45 am 09:45 Cloudy with Mist and Fog 62 16.7 59 15 90 90 E 6 9 30.03 1017 6 10 0.00 0.00
9:53 am 09:53 Cloudy 62 16.7 59 15 90 90 ESE 7 11 30.03 1017 8 13 0.00 0.00
10:53 am 10:53 Cloudy 64 17.8 59 15 84 84 ESE 10 17 30.02 1017 10 16 0.00 0.00
11:31 am 11:31 Cloudy 67 19.4 61 16.1 81 81 ESE 10 17 29.97 1015 10 16 0.00 0.00
11:53 am 11:53 Cloudy 67 19.4 60 15.6 79 79 SE 12 19 30.01 1016 10 16 0.00 0.00
12:35 pm 12:35 Mostly Cloudy 70 21.1 60 15.6 71 71 SSE 12 19 29.94 1014 10 16 0.00 0.00
12:53 pm 12:53 Partly Cloudy 71 21.7 60 15.6 68 68 SE 13 20 29.98 1015 10 16 0.00 0.00
1:53 pm 13:53 Mostly Cloudy 72 22.2 56 13.3 57 57 SSE 13 20 29.96 1015 10 16 0.00 0.00
2:53 pm 14:53 Mostly Cloudy 74 23.3 54 12.2 50 50 SSE 18 30 29.94 1014 10 16 0.00 0.00
3:53 pm 15:53 Partly Cloudy 74 23.3 53 11.7 48 48 SSE 21 33 29.92 1013 10 16 0.00 0.00
4:53 pm 16:53 Partly Cloudy 74 23.3 52 11.1 46 46 SE 20 31 29.89 1012 10 16 0.00 0.00
5:53 pm 17:53 Sunny 72 22.2 49 9.4 44 44 SSE 17 28 29.89 1012 10 16 0.00 0.00
6:53 pm 18:53 Mostly Cloudy 71 21.7 51 10.6 49 49 SE 15 24 29.88 1012 10 16 0.00 0.00
7:53 pm 19:53 Cloudy with Light Rain 68 20 53 11.7 59 59 SE 9 15 29.88 1012 10 16 0.00 0.03
8:53 pm 20:53 Cloudy with Light Rain 65 18.3 55 12.8 70 70 S 16 26 29.89 1012 10 16 0.01 0.25
9:53 pm 21:53 Cloudy with Light Rain 60 15.6 55 12.8 84 84 S 10 17 29.91 1013 10 16 0.01 0.25
10:53 pm 22:53 Cloudy 60 15.6 56 13.3 86 86 SSE 9 15 29.90 1013 10 16 0.00 0.03
11:53 pm 23:53 Cloudy 60 15.6 56 13.3 86 86 SE 10 17 29.88 1012 10 16 0.00 0.00

Powered by AerisWeather